Location: Be?chatów
(51.3665°N, 19.3745°E)
Time: 22:50:47
(UTC+00:00)

H-2A R/B - Pass Details

Date: 19 May 2025
Orbit: 555 x 622 km, 98.4° (Epoch: 16 June)

Event Time Altitude Azimuth Distance (km) Brightness Sun altitude
Rises 23:25:31 0° 30° (NNE) 2,823 6.8 -17.9°
Reaches altitude 10° 23:28:34 10° 54° (NE) 1,901 5.2 -17.8°
Maximum altitude 23:30:56 15° 89° (E) 1,595 4.3 -17.7°
Drops below altitude 10° 23:33:15 10° 125° (SE) 1,871 4.3 -17.7°
Enters shadow 23:33:24 10° 126° (SE) 1,904 4.3 -17.7°
